Flushing, NY

9:43 PM EST on January 20, 2017 (GMT -0500)
La Guardia

Weather History for KLGA - March, 2014

Change the Weather History Date:

Monday, March 17, 2014

  Actual Average Record
Temperature  
Mean Temperature 28 °F 42 °F  
Max Temperature 33 °F 50 °F 74 °F (1945)
Min Temperature 23 °F 35 °F 15 °F (1967)
Degree Days  
Heating Degree Days 37 23  
Month to date heating degree days 505 424  
Since 1 July heating degree days 4162 3853  
Cooling Degree Days 0 0  
Month to date cooling degree days 0 0  
Year to date cooling degree days 0 0  
Moisture  
Dew Point 4 °F    
Average Humidity 34    
Maximum Humidity 40    
Minimum Humidity 28    
Precipitation  
Precipitation 0.00 in 0.13 in 1.39 in (1968)
Month to date precipitation 0.36 2.06  
Year to date precipitation 7.65 7.99  
Snow  
Snow 0.00 in 0.10 in 2.60 in (1967)
Month to date snowfall 0.4 3.1  
Since 1 July snowfall 52.1 25.1  
Snow Depth 0.00 in    
Sea Level Pressure  
Sea Level Pressure 30.09 in    
Wind  
Wind Speed 9 mph (NE)    
Max Wind Speed 18 mph    
Max Gust Speed 25 mph    
Visibility 10 miles    
Events      
T = Trace of Precipitation, MM = Missing Value Source: NWS Daily Summary

Daily Weather History Graph

Daily Weather History Graph

Search for Another Location

Airport or City:

Trip Planner

Search our weather history database for the weather conditions in past years. The results will help you decide how hot, cold, wet, or windy it might be!

Date:

Astronomy

Mar. 17, 2014 Rise Set
Actual Time 7:03 AM EDT 7:04 PM EDT
Civil Twilight 6:36 AM EDT 7:31 PM EDT
Nautical Twilight 6:04 AM EDT 8:03 PM EDT
Astronomical Twilight 5:32 AM EDT 8:36 PM EDT
Moon 8:19 PM EDT (3/17) 7:17 AM EDT (3/17)
Length of Visible Light 12h 55m
Length of Day
12h 00m
Full, 99% of the Moon is Illuminated
Mar 17
Full
Mar 23
Last Quarter
Mar 30
New
Apr 7
First Quarter
Apr 15
Full

Hourly Weather History & Observations

Time (EDT) Temp. Windchill Dew Point Humidity Pressure Visibility Wind Dir Wind Speed Gust Speed Precip Events Conditions
12:51 AM 30.0 °F 19.1 °F 1.9 °F 30% 30.15 in 10.0 mi NNE 15.0 mph - N/A   Overcast
1:51 AM 28.0 °F 16.5 °F 1.0 °F 31% 30.12 in 10.0 mi NNE 15.0 mph - N/A   Overcast
2:51 AM 27.0 °F 14.3 °F -0.0 °F 31% 30.10 in 10.0 mi NNE 17.3 mph 20.7 mph N/A   Overcast
3:51 AM 26.1 °F 14.0 °F -2.0 °F 30% 30.09 in 10.0 mi NE 15.0 mph - N/A   Overcast
4:51 AM 25.0 °F 14.2 °F 1.9 °F 37% 30.09 in 10.0 mi NNE 11.5 mph - N/A   Overcast
5:51 AM 24.1 °F 13.7 °F 3.0 °F 40% 30.07 in 10.0 mi North 10.4 mph - N/A   Overcast
6:51 AM 24.1 °F 13.1 °F 3.0 °F 40% 30.09 in 10.0 mi North 11.5 mph - N/A   Overcast
7:51 AM 24.1 °F 13.1 °F 3.9 °F 42% 30.11 in 10.0 mi NNE 11.5 mph - N/A   Overcast
8:51 AM 24.1 °F 13.1 °F 1.9 °F 38% 30.11 in 10.0 mi NNE 11.5 mph - N/A   Mostly Cloudy
9:51 AM 24.1 °F 13.1 °F 1.9 °F 38% 30.10 in 10.0 mi NE 11.5 mph 25.3 mph N/A   Overcast
10:51 AM 26.1 °F 14.0 °F 3.9 °F 39% 30.09 in 10.0 mi NE 15.0 mph - N/A   Mostly Cloudy
11:51 AM 27.0 °F 15.2 °F 3.0 °F 36% 30.08 in 10.0 mi ENE 15.0 mph - N/A   Overcast
12:51 PM 28.0 °F 18.6 °F 3.0 °F 34% 30.10 in 10.0 mi ENE 10.4 mph - N/A   Overcast
1:51 PM 28.9 °F 19.8 °F 3.0 °F 33% 30.06 in 10.0 mi ENE 10.4 mph - N/A   Overcast
2:51 PM 30.0 °F 25.2 °F 3.0 °F 32% 30.06 in 10.0 mi NE 4.6 mph - N/A   Overcast
3:51 PM 30.0 °F 25.2 °F 3.0 °F 32% 30.06 in 10.0 mi ENE 4.6 mph - N/A   Mostly Cloudy
4:51 PM 30.9 °F 25.2 °F 3.9 °F 32% 30.06 in 10.0 mi ENE 5.8 mph - N/A   Overcast
5:51 PM 30.9 °F 27.5 °F 3.9 °F 32% 30.07 in 10.0 mi Variable 3.5 mph - N/A   Overcast
6:51 PM 32.0 °F 26.4 °F 5.0 °F 32% 30.08 in 10.0 mi NE 5.8 mph - N/A   Overcast
7:51 PM 32.0 °F 26.4 °F 7.0 °F 35% 30.09 in 10.0 mi ENE 5.8 mph - N/A   Overcast
8:51 PM 32.0 °F 26.4 °F 8.1 °F 37% 30.11 in 10.0 mi Variable 5.8 mph - N/A   Overcast
9:51 PM 30.9 °F 24.3 °F 8.1 °F 38% 30.12 in 10.0 mi ENE 6.9 mph - N/A   Overcast
10:51 PM 30.9 °F 25.2 °F 9.0 °F 40% 30.14 in 10.0 mi ENE 5.8 mph - N/A   Mostly Cloudy
11:51 PM 30.9 °F 25.2 °F 9.0 °F 40% 30.13 in 10.0 mi ENE 5.8 mph - N/A   Scattered Clouds